Regional Weather Roundup
Issued by NWS

Home | Current Version | Previous Version | Graphics & Text | Print | Product List | Glossary On
Versions: 1 2 3 4 5 6 7 8 9 10 11 12 13 14 15 16 17 18 19 20 21 22 23 24 25 26 27 28 29 30 31 32 33 34 35 36 37 38 39 40 41 42 43 44 45 46 47 48 49 50
000
ASUS43 KTOP 030059
RWRKS

WEATHER ROUNDUP FOR KANSAS
NATIONAL WEATHER SERVICE GOODLAND KS
800 PM CDT SUN AUG 02 2015

NOTE:  "FAIR" INDICATES FEW OR NO CLOUDS BELOW 12,000 FEET WITH NO
SIGNIFICANT WEATHER AND/OR OBSTRUCTIONS TO VISIBILITY.

KSZ001>006-013>018-027>032-041>047-030200-
NORTHWEST KANSAS

CITY           SKY/WX    TMP DP  RH WIND       PRES   REMARKS
GOODLAND       MOCLDY    87  53  31 SE7       29.95R
HAYS           CLEAR     91  64  40 S8        29.88R
HILL CITY      MOCLDY    89  65  44 NE6       29.90R
RUSSELL        CLEAR     90  65  43 S8        29.86R
$$

KSZ061>065-074>080-084>089-030200-
SOUTHWEST KANSAS

CITY           SKY/WX    TMP DP  RH WIND       PRES   REMARKS
DODGE CITY     PTCLDY    86  65  49 S13       29.91R
ELKHART          N/A     83  67  58 E6          N/A
GARDEN CITY    CLEAR     85  65  51 S5        29.92R
GREAT BEND     CLEAR     90  66  45 SE9       29.87R
LIBERAL        PTCLDY    90  64  43 E6        29.90S
$$

KSZ066>073-081>083-090>101-030200-
SOUTHEAST KANSAS

CITY           SKY/WX    TMP DP  RH WIND       PRES   REMARKS
CHANUTE        CLEAR     86  65  49 SW8       29.87F
COFFEYVILLE    CLEAR     85  63  47 S9        29.87S
HUTCHINSON     CLEAR     87  70  56 S12       29.87S
MEDICINE LODGE   N/A     86  69  56 SE6       29.87R
NEWTON         CLEAR     84  66  54 S6        29.92R
PARSONS        CLEAR     84  70  62 S5        29.89S
WICHITA INTL   PTCLDY    86  69  56 S8        29.87S
WICHITA JABRA  CLEAR     85  67  54 S10       29.87F
WINFIELD       CLEAR     83  68  60 S7        29.89S
$$

KSZ007>012-019>026-033>040-048>060-102>105-030200-
NORTHEAST KANSAS

CITY           SKY/WX    TMP DP  RH WIND       PRES   REMARKS
CONCORDIA      MOCLDY    85  68  56 S8        29.84R
EMPORIA        CLEAR     85  69  58 SW9       29.86F
LAWRENCE       PTCLDY    88  69  53 SW5       29.84R
MANHATTAN      PTCLDY    88  71  57 SW6       29.83R
OLATHE IND     PTCLDY    88  69  53 SW8       29.86R
OLATHE EXE     PTCLDY    86  69  56 SW3       29.85R
SALINA         CLEAR     89  69  51 S9        29.85R
TOPEKA BILLARD MOCLDY    89  71  55 S5        29.84R HX  95
TOPEKA FORBES  MOCLDY    87  71  58 SW6       29.85R
$$



USA.gov is the U.S. government's official web portal to all federal, state and local government web resources and services.